K0JSC-13 Weather Reports


Display with metric or nautical units.
time (UTC)temp
F
wind
direction
speed
MPH
gust
MPH
rain 1hr
in
rain 24hr
in
rain mn
in
humidity
%
barometer
mb
20260505000003 70 89 7.0 15.0 0.00 0.00 0.00 27 980.0
20260504235403 70 92 6.0 11.0 0.00 0.00 0.00 27 980.0
20260504234504 70 90 8.0 17.0 0.00 0.00 0.00 26 980.0
20260504233603 71 85 7.0 14.0 0.00 0.00 0.00 26 979.9
20260504232703 71 84 7.0 13.0 0.00 0.00 0.00 28 979.9
20260504231803 72 85 6.0 14.0 0.00 0.00 0.00 26 979.9
20260504231118 72 85 5.0 13.0 0.00 0.00 0.00 25 979.8
20260504230003 72 85 8.0 13.0 0.00 0.00 0.00 24 979.6
20260504225403 73 82 7.0 13.0 0.00 0.00 0.00 26 979.6
20260504224503 73 73 4.0 16.0 0.00 0.00 0.00 23 979.7
20260504223603 73 72 7.0 13.0 0.00 0.00 0.00 23 979.6
20260504222704 73 78 7.0 13.0 0.00 0.00 0.00 22 979.6
20260504221803 73 82 9.0 15.0 0.00 0.00 0.00 22 979.6
20260504220903 73 80 10.0 18.0 0.00 0.00 0.00 24 979.9
20260504220004 73 77 9.0 20.0 0.00 0.00 0.00 23 980.1
20260504215403 73 73 8.0 20.0 0.00 0.00 0.00 22 980.1
20260504214503 73 73 8.0 15.0 0.00 0.00 0.00 22 980.2
20260504213603 73 79 9.0 18.0 0.00 0.00 0.00 24 980.5
20260504212918 73 76 6.0 18.0 0.00 0.00 0.00 25 980.4
20260504211804 73 72 8.0 19.0 0.00 0.00 0.00 25 980.5
20260504210903 74 72 7.0 19.0 0.00 0.00 0.00 26 980.9
20260504210004 73 72 5.0 13.0 0.00 0.00 0.00 26 980.7
20260504205403 73 70 6.0 14.0 0.00 0.00 0.00 24 980.9
20260504204503 73 77 8.0 19.0 0.00 0.00 0.00 25 981.0
20260504203603 73 77 10.0 24.0 0.00 0.00 0.00 24 981.2
20260504202704 73 74 10.0 17.0 0.00 0.00 0.00 28 981.3
20260504201803 73 71 8.0 17.0 0.00 0.00 0.00 28 981.4
20260504201116 73 76 7.0 17.0 0.00 0.00 0.00 26 981.5
20260504200003 73 71 9.0 19.0 0.00 0.00 0.00 26 981.8
20260504195617 73 84 9.0 20.0 0.00 0.00 0.00 27 981.8
20260504194503 72 110 10.0 21.0 0.00 0.00 0.00 27 981.8
20260504193603 72 111 12.0 21.0 0.00 0.00 0.00 26 982.0
20260504192703 71 120 12.0 19.0 0.00 0.00 0.00 26 982.1
20260504191803 70 117 12.0 24.0 0.00 0.00 0.00 29 982.2
20260504191118 71 109 14.0 25.0 0.00 0.00 0.00 28 982.2
20260504190004 73 81 13.0 21.0 0.00 0.00 0.00 23 981.8
20260504185403 73 81 3.0 21.0 0.00 0.00 0.00 25 981.7
20260504184503 73 0 3.0 0.0 0.00 0.00 0.00 19 982.0
20260504183603 73 0 3.0 0.0 0.00 0.00 0.00 19 982.2
20260504182703 73 0 3.0 0.0 0.00 0.00 0.00 19 982.4
20260504182016 73 0 3.0 0.0 0.00 0.00 0.00 19 982.5
20260504180904 73 0 3.0 0.0 0.00 0.00 0.00 19 982.6
20260504180004 73 36 3.0 2.0 0.00 0.00 0.00 19 982.9
20260504175617 73 51 3.0 5.0 0.00 0.00 0.00 19 982.9
20260504174503 73 79 6.0 14.0 0.00 0.00 0.00 20 982.9
20260504173603 73 259 10.0 18.0 0.00 0.00 0.00 20 983.2
20260504172703 73 311 8.0 15.0 0.00 0.00 0.00 23 983.3
20260504172018 73 327 6.0 16.0 0.00 0.00 0.00 22 983.5
20260504170903 72 306 5.0 15.0 0.00 0.00 0.00 21 984.0
20260504151116 64 305 9.0 16.0 0.00 0.00 0.00 34 986.2
20260504140903 64 295 9.0 19.0 0.00 0.00 0.00 35 986.5
20260504110216 56 343 5.0 9.0 0.00 0.00 0.00 35 986.8
20260504100218 53 73 0.0 2.0 0.00 0.00 0.00 42 986.6
20260504081803 51 0 0.0 0.0 0.00 0.00 0.00 44 986.8
20260504080903 52 86 0.0 1.0 0.00 0.00 0.00 45 986.9
20260504070219 55 72 0.0 1.0 0.00 0.00 0.00 39 987.4
20260504050218 59 77 0.0 3.0 0.00 0.00 0.00 33 987.8
20260504045403 59 82 0.0 2.0 0.00 0.00 0.00 33 987.8
20260504044504 60 80 0.0 3.0 0.00 0.00 0.00 34 987.6
20260504043603 61 81 2.0 7.0 0.00 0.00 0.00 31 987.6
20260504042703 61 75 1.0 3.0 0.00 0.00 0.00 35 987.7
20260504042017 61 76 2.0 5.0 0.00 0.00 0.00 33 987.6
20260504040903 62 78 1.0 3.0 0.00 0.00 0.00 31 987.4
20260504040004 63 86 0.0 3.0 0.00 0.00 0.00 29 987.4
20260504035403 63 89 1.0 5.0 0.00 0.00 0.00 29 987.5
20260504034503 63 90 1.0 6.0 0.00 0.00 0.00 33 987.3
20260504033818 63 92 0.0 6.0 0.00 0.00 0.00 29 987.3
20260504032703 62 94 0.0 1.0 0.00 0.00 0.00 33 987.2
20260504032019 60 81 0.0 1.0 0.00 0.00 0.00 36 987.1
20260504030903 60 84 0.0 1.0 0.00 0.00 0.00 39 986.9
20260504030003 61 79 0.0 3.0 0.00 0.00 0.00 43 986.8
20260504025403 62 0 0.0 0.0 0.00 0.00 0.00 38 986.7
20260504024503 63 0 0.0 0.0 0.00 0.00 0.00 36 986.6
20260504023603 64 74 0.0 1.0 0.00 0.00 0.00 36 986.5
20260504022703 64 74 0.0 1.0 0.00 0.00 0.00 31 986.3
20260504021803 65 0 0.0 0.0 0.00 0.00 0.00 32 986.3
20260504020904 65 0 0.0 0.0 0.00 0.00 0.00 29 986.3
20260504020217 66 74 0.0 1.0 0.00 0.00 0.00 28 986.2
20260504015616 66 74 0.0 1.0 0.00 0.00 0.00 30 986.2
20260504014718 68 0 0.0 0.0 0.00 0.00 0.00 24 986.2
20260504013603 70 195 0.0 3.0 0.00 0.00 0.00 22 985.9
20260504012703 69 0 0.0 0.0 0.00 0.00 0.00 21 985.9
20260504011803 70 74 0.0 2.0 0.00 0.00 0.00 23 985.9
20260504010906 70 84 1.0 4.0 0.00 0.00 0.00 18 985.7
20260504010003 72 153 0.0 2.0 0.00 0.00 0.00 20 985.6
20260504005403 72 200 1.0 3.0 0.00 0.00 0.00 20 985.5
20260504004718 73 193 1.0 4.0 0.00 0.00 0.00 18 985.5
20260504003603 75 216 1.0 4.0 0.00 0.00 0.00 16 985.5
20260504002703 75 205 1.0 5.0 0.00 0.00 0.00 16 985.6
20260504001803 74 203 2.0 4.0 0.00 0.00 0.00 17 985.8
20260504000903 74 208 1.0 3.0 0.00 0.00 0.00 17 985.9